Date,TemperatureHighF,TemperatureAvgF,TemperatureLowF,DewpointHighF,DewpointAvgF,DewpointLowF,HumidityHigh,HumidityAvg,HumidityLow,PressureMaxIn,PressureMinIn,WindSpeedMaxMPH,WindSpeedAvgMPH,GustSpeedMaxMPH,PrecipitationSumIn
2013-1-1,53.9,48.3,42.1,34.4,25.2,15.3,71,43,24,30.22,30.09,16,4,18,0.00
2013-1-2,61.0,54.9,50.3,20.3,17.1,14.6,25,22,19,30.14,30.02,27,7,30,0.00
2013-1-3,61.6,56.0,52.2,18.3,14.3,8.9,24,19,13,30.16,30.03,31,7,37,0.00
2013-1-4,61.7,53.6,48.9,24.2,15.0,8.0,34,22,15,30.25,30.14,15,3,15,0.00
2013-1-5,61.6,53.0,48.3,35.6,23.2,12.8,57,32,18,30.27,30.14,12,3,12,0.00
2013-1-6,50.1,46.0,41.2,43.0,40.2,30.6,94,81,49,30.16,30.00,30,5,31,0.02
2013-1-7,62.9,53.6,44.3,35.9,30.6,20.2,68,45,21,30.12,30.00,19,4,21,0.00
2013-1-8,72.2,63.2,56.8,37.9,31.8,20.2,48,31,23,30.08,30.00,24,4,24,0.00
2013-1-9,67.3,59.0,46.1,44.3,37.5,33.3,91,47,33,30.08,29.95,9,2,9,0.00
2013-1-10,53.2,46.2,39.2,44.8,33.5,21.8,91,64,32,30.08,29.88,32,6,36,0.00
2013-1-11,50.4,42.1,37.4,29.4,23.3,19.6,58,48,35,30.18,30.05,19,3,24,0.00
2013-1-12,50.2,42.7,38.6,27.1,22.2,15.5,59,45,26,30.15,30.06,21,4,25,0.00
2013-1-13,51.3,42.7,38.4,28.4,20.9,10.3,59,42,29,30.16,30.03,23,5,24,0.00
2013-1-14,46.7,41.2,35.5,9.6,3.8,0.5,29,21,15,30.35,30.13,27,8,33,0.00
2013-1-15,57.4,48.0,39.7,22.7,14.4,4.2,31,26,21,30.44,30.31,22,5,23,0.00
2013-1-16,64.8,57.3,49.8,28.2,23.1,19.2,35,27,20,30.35,30.12,31,7,32,0.00
2013-1-17,69.4,63.8,59.9,19.8,15.8,11.8,20,16,11,30.15,30.04,32,8,34,0.00
2013-1-18,68.9,62.5,57.4,21.0,16.5,13.5,21,17,14,30.13,30.04,20,4,20,0.00
2013-1-19,71.8,63.9,58.5,20.1,14.7,9.5,18,15,12,30.17,30.06,17,4,17,0.00
2013-1-20,71.3,64.0,57.9,19.7,11.9,5.7,18,13,10,30.12,29.99,21,4,22,0.00
2013-1-21,74.5,66.6,62.2,15.8,9.4,3.4,14,11,8,30.08,29.98,17,4,21,0.00
2013-1-22,74.3,65.2,59.2,22.2,11.4,3.3,21,12,8,30.08,29.98,10,2,12,0.00
2013-1-23,74.1,64.2,50.6,46.8,28.1,14.9,87,29,15,30.08,29.97,9,3,13,0.11
2013-1-24,58.2,53.7,48.7,54.9,51.5,46.3,97,92,85,30.16,30.03,13,3,13,0.61
2013-1-25,57.7,55.5,53.9,54.8,52.6,49.7,96,90,78,30.12,29.94,12,2,12,0.41
2013-1-26,65.8,57.5,51.3,56.5,52.3,48.6,95,84,66,29.96,29.85,14,3,17,0.02
2013-1-27,56.7,50.0,45.6,51.3,43.9,26.6,96,81,46,30.01,29.90,13,4,14,0.01
2013-1-28,55.0,47.6,43.4,34.8,29.6,25.8,60,50,40,30.18,30.01,23,4,24,0.00
2013-1-29,57.6,49.1,44.2,38.3,32.6,29.0,71,53,41,30.20,30.12,15,3,17,0.00
2013-1-30,66.9,54.9,46.0,42.1,38.1,33.1,74,55,37,30.33,30.20,13,4,18,0.00
2013-1-31,73.4,63.0,52.7,41.2,36.3,33.8,56,38,27,30.23,30.07,16,3,19,0.00
2013-2-1,73.5,64.5,59.0,48.4,38.1,33.4,49,38,27,30.13,30.07,13,3,15,0.00
2013-2-2,71.7,65.2,60.7,45.2,39.5,34.4,55,39,31,30.17,30.08,15,2,18,0.00
2013-2-3,72.6,63.7,58.6,47.8,42.1,35.4,55,46,31,30.11,29.96,14,3,18,0.00
2013-2-4,73.8,61.5,52.6,51.7,41.4,33.1,82,49,28,30.05,29.92,12,4,13,0.00
2013-2-5,57.1,49.3,44.1,51.8,46.8,42.3,96,92,79,30.05,29.96,13,2,14,0.00
2013-2-6,63.2,52.0,45.6,48.6,46.2,42.7,95,82,57,30.08,29.97,12,3,13,0.01
2013-2-7,57.3,48.9,44.6,49.0,44.8,41.3,94,86,72,30.10,29.95,16,3,18,0.00
2013-2-8,48.8,43.2,38.2,42.5,37.4,34.5,92,80,62,29.95,29.83,35,8,35,0.09
2013-2-9,54.7,45.6,39.0,39.9,36.3,31.7,86,71,53,30.08,29.92,11,3,13,0.00
2013-2-10,51.2,44.9,40.0,42.1,38.6,35.2,87,79,63,30.08,29.99,14,4,15,0.00
2013-2-11,58.4,48.8,41.4,39.9,29.1,13.9,92,52,19,30.22,30.05,22,6,28,0.00
2013-2-12,62.4,51.8,44.6,32.8,24.2,14.9,51,35,21,30.32,30.19,22,6,24,0.00
2013-2-13,69.9,56.9,50.3,40.2,30.3,24.7,52,37,21,30.24,30.10,14,5,17,0.00
2013-2-14,74.4,62.2,50.5,35.7,30.7,26.3,51,32,19,30.17,30.03,23,3,23,0.00
2013-2-15,75.3,66.6,60.0,31.2,25.8,19.5,31,22,17,30.16,30.09,21,5,23,0.00
2013-2-16,78.2,67.1,61.8,26.3,19.3,15.2,23,16,10,30.13,29.92,14,4,17,0.00
2013-2-17,71.1,58.1,46.4,46.4,32.8,16.0,93,44,16,29.97,29.85,17,3,17,0.00
2013-2-18,62.3,51.0,46.3,48.0,44.6,41.7,93,80,57,30.02,29.90,13,2,14,0.00
2013-2-19,50.3,46.5,40.3,45.3,40.7,36.6,92,81,68,29.95,29.68,30,5,30,0.18
2013-2-20,58.3,45.6,36.4,37.8,30.8,26.7,87,58,38,29.98,29.67,30,7,30,0.00
2013-2-21,59.6,47.8,39.8,41.2,34.1,27.0,80,60,34,30.09,29.95,21,4,22,0.00
2013-2-22,63.9,52.8,45.8,37.1,31.2,25.3,55,44,32,30.18,30.07,17,4,19,0.00
2013-2-23,65.0,54.6,47.6,46.2,34.6,22.5,69,47,34,30.13,29.88,27,5,28,0.00
2013-2-24,60.9,53.5,47.7,31.9,13.8,6.2,51,22,12,30.18,29.99,43,11,43,0.00
2013-2-25,66.7,55.4,48.9,30.7,19.5,6.3,47,26,16,30.19,30.03,20,4,20,0.00
2013-2-26,68.3,58.7,46.3,32.8,22.4,12.7,58,27,15,30.10,29.97,28,7,30,0.00
2013-2-27,68.5,60.4,53.2,18.5,14.1,8.7,20,16,12,30.26,30.09,28,6,31,0.00
2013-2-28,76.0,65.2,55.7,26.2,14.7,8.7,24,14,10,30.29,30.20,21,5,22,0.00
2013-3-1,82.1,70.3,61.9,28.2,22.6,15.8,20,17,12,30.28,30.11,15,5,16,0.00
2013-3-2,80.8,70.4,63.2,34.2,27.6,23.7,28,20,15,30.17,30.02,18,5,22,0.00
2013-3-3,73.0,61.0,51.3,46.6,39.3,24.6,83,48,22,30.05,29.91,21,4,21,0.00
2013-3-4,69.5,55.7,48.0,52.2,48.1,44.8,93,77,52,30.07,29.95,14,3,17,0.00
2013-3-5,63.2,51.7,47.2,52.2,47.1,43.5,95,85,67,30.09,29.98,18,3,21,0.00
2013-3-6,55.8,49.7,43.4,47.1,44.5,41.2,93,83,66,30.12,29.97,15,3,15,0.00
2013-3-7,56.4,49.6,46.3,47.0,43.2,37.0,94,80,56,29.98,29.80,20,3,21,0.21
2013-3-8,54.9,47.0,40.4,44.8,41.4,38.6,94,82,60,30.00,29.75,25,6,27,0.29
2013-3-9,64.3,52.7,42.3,43.5,39.6,31.6,90,64,40,30.19,30.00,22,5,24,0.00
2013-3-10,74.9,62.2,53.0,33.2,26.8,19.1,45,27,13,30.24,30.11,28,6,31,0.00
2013-3-11,78.0,64.8,54.9,39.8,29.9,19.2,37,27,14,30.14,29.99,15,4,17,0.00
2013-3-12,83.8,68.5,57.0,46.0,35.4,28.1,46,31,16,30.04,29.96,13,3,13,0.00
2013-3-13,90.3,75.5,65.7,45.4,34.5,28.7,31,23,15,30.07,29.96,17,4,18,0.00
2013-3-14,90.0,75.1,64.8,49.9,39.6,30.6,40,29,17,30.03,29.94,22,6,22,0.00
2013-3-15,85.0,70.2,60.1,51.3,44.8,32.1,65,43,16,29.96,29.86,13,3,19,0.00
2013-3-16,79.2,63.1,49.6,54.3,49.0,43.3,90,63,31,29.89,29.81,18,3,19,0.00
2013-3-17,78.5,63.6,50.9,52.2,45.3,34.1,86,55,26,29.93,29.85,17,4,18,0.00
2013-3-18,67.0,54.7,48.1,51.8,48.6,45.9,94,81,57,30.03,29.91,19,4,19,0.00
2013-3-19,76.3,59.0,48.9,53.1,49.1,46.8,95,73,38,30.08,29.99,19,4,21,0.00
2013-3-20,71.3,60.7,52.2,52.0,48.5,44.0,88,66,41,30.05,29.91,29,5,31,0.00
2013-3-21,76.7,64.2,55.7,50.9,46.5,29.3,78,54,33,29.91,29.75,17,4,19,0.00
2013-3-22,79.9,63.7,51.7,43.1,32.5,17.3,65,33,16,29.87,29.74,18,5,21,0.00
2013-3-23,77.6,61.7,47.4,49.8,35.5,17.8,83,41,21,29.96,29.84,20,5,20,0.00
2013-3-24,80.2,62.8,47.6,52.1,39.2,21.2,95,49,19,29.97,29.84,15,4,18,0.00
2013-3-25,78.3,63.6,54.0,51.6,44.9,28.8,82,54,25,29.92,29.84,13,4,14,0.00
2013-3-26,74.0,60.0,50.7,54.3,49.0,45.1,92,69,45,29.91,29.84,14,3,14,0.00
2013-3-27,70.6,56.9,48.3,53.1,49.3,46.6,95,78,53,30.00,29.87,15,3,18,0.00
2013-3-28,76.5,59.2,47.5,55.4,50.1,45.5,96,74,44,30.04,29.97,15,3,17,0.00
2013-3-29,80.7,63.5,51.5,55.2,49.6,43.4,93,65,30,30.06,29.97,22,4,22,0.00
2013-3-30,77.1,61.3,51.4,54.4,45.4,29.6,92,62,21,30.07,29.99,18,5,20,0.00
2013-3-31,66.2,56.7,51.1,57.3,50.7,46.0,92,81,64,30.08,30.01,16,4,18,0.02
2013-4-1,64.2,54.2,49.3,51.4,48.4,46.8,93,82,63,30.13,30.03,26,8,29,0.00
2013-4-2,74.9,59.6,48.6,53.4,49.4,44.1,96,72,42,30.07,29.95,21,5,22,0.00
2013-4-3,83.6,64.2,51.2,54.6,49.6,36.5,93,64,21,30.04,29.94,16,4,16,0.00
2013-4-4,75.3,59.0,51.3,55.2,51.6,49.3,95,79,43,30.06,29.95,27,6,31,0.00
2013-4-5,72.2,60.4,53.2,56.2,53.1,50.3,95,78,51,30.04,29.93,29,4,29,0.00
2013-4-6,74.4,62.3,51.2,54.2,50.9,47.1,91,69,41,30.04,29.89,28,4,31,0.00
2013-4-7,79.6,66.3,54.3,53.6,46.5,41.8,87,51,31,29.92,29.74,23,5,26,0.00
2013-4-8,65.3,56.2,49.4,50.7,40.9,31.8,93,61,29,29.81,29.62,28,7,30,0.00
2013-4-9,73.9,60.7,51.9,36.3,30.8,21.4,52,34,17,29.99,29.80,30,6,32,0.00
2013-4-10,83.2,68.7,60.5,35.6,26.2,16.3,33,21,10,30.07,29.92,26,7,28,0.00
2013-4-11,77.3,63.1,53.2,50.4,42.8,33.6,83,50,31,29.94,29.72,14,4,14,0.00
2013-4-12,80.2,61.5,50.3,56.1,51.0,47.7,94,71,43,29.83,29.73,17,4,19,0.00
2013-4-13,66.8,55.1,49.8,54.7,50.9,47.6,96,87,64,29.87,29.78,11,2,13,0.00
2013-4-14,61.6,54.4,50.7,51.5,49.1,47.8,92,83,69,29.85,29.77,13,2,14,0.00
2013-4-15,64.6,54.7,48.8,50.6,48.1,43.8,90,79,58,29.85,29.78,24,4,24,0.00
2013-4-16,63.1,53.4,44.9,44.3,36.8,24.0,86,56,30,29.98,29.81,24,6,25,0.00
2013-4-17,71.8,58.7,48.6,32.3,24.8,15.3,40,28,13,30.11,29.98,28,5,31,0.00
2013-4-18,77.0,61.6,53.9,27.1,20.7,12.6,32,21,9,30.18,30.08,33,10,37,0.00
2013-4-19,83.1,70.4,60.9,35.1,23.2,15.1,30,18,10,30.13,29.93,27,5,27,0.00
2013-4-20,91.3,75.4,65.9,45.8,36.2,28.6,35,25,14,29.94,29.82,22,6,24,0.00
2013-4-21,88.1,71.2,58.0,50.3,45.0,32.1,71,43,15,29.93,29.86,14,4,17,0.00
2013-4-22,79.9,61.6,50.4,56.4,50.2,43.6,96,71,33,29.93,29.82,14,3,17,0.00
2013-4-23,83.4,61.6,50.6,55.5,50.9,48.0,92,72,37,29.91,29.81,19,3,19,0.00
2013-4-24,57.2,54.0,52.1,53.4,50.7,46.4,94,89,76,29.96,29.84,13,2,14,0.00
2013-4-25,68.5,58.9,51.7,50.0,47.4,45.8,85,67,49,30.08,29.92,20,5,23,0.00
2013-4-26,79.0,64.5,53.1,53.4,48.9,44.5,76,59,40,30.11,30.04,15,4,17,0.00
2013-4-27,86.5,70.9,55.9,53.9,49.6,42.8,79,51,24,30.10,29.93,20,5,23,0.00
2013-4-28,90.8,69.0,54.5,60.3,54.3,48.3,90,64,27,29.95,29.78,17,4,19,0.00
2013-4-29,82.4,63.6,51.6,59.7,53.0,47.5,96,72,44,29.83,29.72,11,3,13,0.00
2013-4-30,69.2,58.3,52.2,54.7,52.0,49.9,94,81,59,29.85,29.77,12,2,13,0.00
2013-5-1,85.3,66.0,53.7,57.2,53.1,50.5,92,67,35,30.03,29.85,15,2,17,0.00
2013-5-2,85.9,73.4,55.4,52.6,20.9,0.0,89,26,5,30.10,29.98,39,8,41,0.00
2013-5-3,94.5,79.7,71.0,28.2,12.9,1.7,18,8,5,29.99,29.71,21,5,23,0.00
2013-5-4,76.3,64.2,54.4,53.9,46.8,20.3,89,57,13,29.78,29.66,14,4,15,0.00
2013-5-5,61.6,55.7,53.0,51.2,49.7,48.4,89,81,67,29.90,29.76,14,3,14,0.00
2013-5-6,64.8,57.0,51.9,54.5,50.5,43.5,95,80,51,29.98,29.83,19,4,20,0.25
2013-5-7,66.5,58.0,52.9,55.3,50.4,45.9,94,77,58,30.03,29.95,18,4,20,0.00
2013-5-8,69.4,59.3,52.0,52.5,48.6,43.4,90,69,52,30.06,30.01,22,6,24,0.00
2013-5-9,74.5,62.0,51.1,55.3,50.8,45.6,84,68,48,30.06,29.96,17,4,18,0.00
2013-5-10,84.5,69.6,55.4,58.0,53.9,49.9,84,61,34,30.04,29.94,26,6,29,0.00
2013-5-11,98.8,76.3,58.3,60.8,53.2,42.6,89,52,18,30.01,29.93,24,5,26,0.00
2013-5-12,99.2,82.7,64.7,57.6,52.1,38.4,77,39,13,29.99,29.85,25,6,30,0.00
2013-5-13,99.3,86.4,75.2,53.4,44.5,33.6,42,24,14,29.90,29.81,37,10,40,0.00
2013-5-14,85.5,73.3,57.0,57.3,46.2,29.4,76,41,18,29.91,29.80,23,5,23,0.00
2013-5-15,78.0,64.8,54.0,58.2,53.1,47.8,86,67,50,29.97,29.88,15,3,17,0.00
2013-5-16,74.0,60.8,53.6,56.6,53.4,50.8,94,78,54,29.93,29.84,15,4,18,0.00
2013-5-17,71.0,62.3,55.5,56.3,53.4,50.9,90,74,57,29.94,29.86,21,4,22,0.00
2013-5-18,76.5,64.4,53.7,56.3,52.9,49.2,93,68,47,29.99,29.91,17,4,19,0.00
2013-5-19,84.3,69.1,54.1,57.0,51.4,41.9,87,58,23,29.93,29.81,21,4,24,0.00
2013-5-20,93.8,73.0,56.4,57.5,49.7,35.5,91,51,15,29.89,29.82,21,4,21,0.00
2013-5-21,86.7,68.6,56.1,63.3,57.4,47.6,95,71,35,29.87,29.75,15,4,19,0.00
2013-5-22,74.5,63.6,54.5,58.0,54.1,45.3,94,73,54,29.79,29.71,20,4,20,0.00
2013-5-23,70.5,60.8,53.9,53.6,49.9,41.8,86,68,51,29.89,29.77,15,4,20,0.00
2013-5-24,72.7,61.1,51.6,56.1,50.0,41.8,87,68,54,29.93,29.86,21,5,21,0.00
2013-5-25,73.3,60.7,51.9,55.6,50.8,44.5,92,71,52,29.98,29.91,17,4,18,0.00
2013-5-26,72.0,61.8,51.9,55.9,52.2,47.3,93,72,56,29.99,29.93,19,4,20,0.00
2013-5-27,78.9,65.5,52.7,57.5,53.6,49.3,92,68,42,29.96,29.80,18,4,19,0.00
2013-5-28,82.0,69.5,56.4,56.4,53.5,45.5,89,60,40,29.83,29.68,24,4,24,0.00
2013-5-29,79.1,69.1,64.1,54.8,49.7,45.1,65,50,34,29.74,29.63,9,2,11,0.00
2013-5-30,86.8,72.2,61.1,62.4,55.7,49.4,77,57,43,29.81,29.68,14,2,15,0.00
2013-5-31,87.0,71.0,57.5,62.3,58.1,52.8,94,67,42,29.85,29.75,14,3,15,0.00
2013-6-1,102.2,75.1,58.6,63.2,58.4,46.1,94,62,20,29.80,29.66,18,3,19,0.00
2013-6-2,80.4,66.1,58.0,63.8,58.6,54.7,95,79,52,29.77,29.69,11,2,13,0.00
2013-6-3,58.4,58.1,57.8,55.7,54.5,53.6,91,88,86,29.80,29.74,5,1,6,0.00
2013-6-6,83.0,71.6,58.0,62.4,58.4,53.5,87,65,48,29.89,29.81,15,5,17,0.00
2013-6-7,88.1,66.5,55.1,64.4,57.6,53.1,96,76,43,29.86,29.72,14,2,14,0.00
2013-6-8,80.0,64.9,55.6,62.2,57.3,53.6,96,78,53,29.85,29.73,12,2,13,0.00
2013-6-9,82.5,64.9,56.3,62.7,56.8,52.8,96,78,41,29.87,29.81,15,2,15,0.00
2013-6-10,77.0,65.0,55.8,57.9,54.3,51.2,92,70,50,29.91,29.84,16,4,20,0.00
2013-6-11,89.2,71.2,57.0,59.1,55.5,48.5,91,61,32,29.89,29.83,17,3,17,0.00
2013-6-12,83.3,65.7,56.9,62.3,57.6,54.7,95,77,49,29.96,29.85,13,2,15,0.00
2013-6-13,84.4,67.1,56.2,62.0,57.4,53.3,96,74,47,29.96,29.84,17,3,17,0.00
2013-6-14,84.3,67.2,54.7,61.6,56.9,52.9,96,73,39,29.86,29.77,13,3,16,0.00
2013-6-15,79.8,65.2,55.4,59.7,55.7,51.8,94,74,39,29.92,29.82,13,3,15,0.01
2013-6-16,85.8,67.7,54.5,59.1,55.2,51.1,94,68,38,29.99,29.88,19,4,20,0.00
2013-6-17,90.6,72.4,59.3,60.2,55.3,47.7,83,60,25,29.91,29.81,19,4,22,0.00
2013-6-18,84.7,71.0,59.5,60.1,55.5,51.1,81,61,36,29.85,29.75,19,4,19,0.00
2013-6-19,85.6,72.0,57.3,53.5,47.2,37.7,83,46,21,29.81,29.72,22,5,23,0.00
2013-6-20,84.2,73.7,63.4,56.6,48.7,36.3,61,42,28,29.78,29.72,19,4,19,0.00
2013-6-21,83.2,71.5,59.5,56.4,49.8,41.3,68,48,31,29.83,29.76,18,4,19,0.00
2013-6-22,83.6,70.4,58.2,60.9,55.5,46.8,83,61,43,29.84,29.74,17,4,19,0.00
2013-6-23,74.8,64.4,56.6,59.2,56.1,51.5,94,76,57,29.82,29.73,18,4,18,0.00
2013-6-24,68.8,62.7,55.7,58.7,56.4,53.3,93,81,67,29.89,29.77,12,3,13,0.00
2013-6-25,81.8,68.4,56.7,63.4,58.8,54.7,95,74,51,29.95,29.85,18,4,19,0.00
2013-6-26,93.1,77.5,62.0,64.8,61.1,57.2,88,60,38,29.92,29.84,16,4,18,0.00
2013-6-27,96.7,80.8,65.6,66.3,61.2,56.7,83,55,28,29.95,29.89,18,5,18,0.00
2013-6-28,99.7,84.0,69.4,66.0,61.8,58.3,74,50,30,29.92,29.78,20,4,20,0.00
2013-6-29,104.2,88.1,72.1,65.6,60.6,54.6,68,43,23,29.81,29.67,21,4,23,0.00
2013-6-30,102.3,86.8,72.9,66.7,61.5,49.9,65,45,26,29.73,29.63,14,2,18,0.00
2013-7-1,98.0,80.6,66.0,61.8,58.7,54.2,81,51,24,29.82,29.71,12,3,14,0.00
2013-7-2,95.0,79.6,68.6,63.3,59.8,54.6,78,53,30,29.91,29.80,15,3,15,0.00
2013-7-3,96.1,78.0,68.1,65.5,60.8,47.7,80,58,32,29.84,29.72,15,3,16,0.00
2013-7-4,94.3,76.6,63.4,64.4,57.4,48.6,86,56,25,29.76,29.67,13,4,13,0.00
2013-7-5,89.2,71.8,60.7,64.8,58.5,53.8,91,66,32,29.77,29.69,10,2,11,0.00
2013-7-6,93.0,72.6,60.4,65.9,61.4,56.4,94,71,40,29.77,29.67,18,3,18,0.00
2013-7-7,93.4,75.4,60.3,65.5,57.7,45.6,95,60,24,29.80,29.71,18,4,19,0.00
2013-7-8,97.3,81.2,64.0,61.4,53.3,44.3,85,45,19,29.86,29.79,25,6,25,0.00
2013-7-9,100.7,87.5,74.0,62.6,52.3,41.5,59,31,17,29.90,29.82,17,4,20,0.00
2013-7-10,84.8,73.5,66.3,62.2,57.8,50.8,75,59,33,29.90,29.84,12,2,14,0.00
2013-7-11,75.8,70.4,65.6,64.8,61.7,56.1,87,74,62,29.91,29.84,11,2,11,0.00
2013-7-12,90.5,74.8,63.1,66.4,62.4,57.8,93,69,38,29.88,29.79,17,3,19,0.00
2013-7-14,92.8,81.1,68.2,57.5,53.7,49.8,63,41,26,29.80,29.75,23,7,23,0.00
2013-7-15,92.5,76.4,64.3,62.9,53.2,40.1,80,50,18,29.80,29.72,26,6,28,0.00
2013-7-16,89.5,74.8,60.7,55.5,48.5,39.8,74,44,19,29.91,29.78,17,5,19,0.00
2013-7-17,93.2,76.3,61.4,52.4,47.0,33.3,71,40,15,29.96,29.88,22,5,22,0.00
2013-7-18,93.2,76.2,62.9,59.3,53.2,46.2,70,47,27,29.91,29.79,20,4,21,0.00
2013-7-19,93.5,75.3,61.5,61.9,57.2,53.6,82,56,31,29.83,29.74,17,3,17,0.00
2013-7-20,89.0,70.5,58.4,66.9,60.2,55.7,92,73,42,29.83,29.70,13,2,13,0.00
2013-7-21,78.7,69.9,63.9,64.9,61.1,56.5,86,74,59,29.88,29.75,9,2,11,0.00
2013-7-22,86.6,74.9,65.4,65.3,61.0,55.4,88,64,44,29.92,29.84,15,3,17,0.01
2013-7-23,88.5,75.6,65.3,63.8,59.7,54.2,78,60,42,29.96,29.85,20,4,20,0.00
2013-7-24,91.5,77.1,62.9,63.6,59.0,55.8,86,57,31,29.90,29.81,19,5,20,0.00
2013-7-25,94.9,73.5,61.2,64.2,59.6,55.9,86,65,36,29.94,29.85,16,4,18,0.00
2013-7-26,88.3,72.9,63.0,66.0,61.1,57.8,86,68,47,30.02,29.92,15,3,16,0.00
2013-7-27,91.4,74.7,62.0,65.0,60.4,56.9,87,64,39,29.95,29.79,14,4,15,0.00
2013-7-28,83.6,67.8,56.6,64.0,58.6,53.9,95,75,46,29.87,29.80,12,2,14,0.00
2013-7-29,85.5,68.4,55.7,60.9,54.8,46.6,95,67,27,29.97,29.85,13,3,14,0.00
2013-7-30,85.4,69.1,57.3,61.2,56.9,50.6,90,67,42,30.05,29.97,15,3,18,0.00
2013-7-31,81.8,65.8,55.9,60.2,56.0,52.5,92,73,47,30.05,29.93,14,3,17,0.00
2013-8-1,84.5,66.5,53.3,61.0,56.0,51.3,95,72,44,29.98,29.85,16,2,17,0.00
2013-8-2,85.8,69.0,56.4,61.6,57.3,52.6,92,69,43,29.91,29.84,18,3,18,0.00
2013-8-3,88.0,68.5,56.0,62.7,57.4,54.2,95,71,38,29.94,29.86,17,3,19,0.00
2013-8-4,89.3,69.9,56.3,61.5,56.1,50.8,95,66,33,29.95,29.87,18,3,18,0.00
2013-8-5,90.5,72.4,58.0,60.0,53.1,38.9,92,57,17,29.94,29.85,19,4,19,0.00
2013-8-6,87.3,68.4,54.5,60.0,56.1,51.9,95,68,35,29.97,29.89,17,4,18,0.00
2013-8-7,86.5,68.7,55.9,59.8,55.3,50.1,94,66,30,30.01,29.91,20,4,20,0.00
2013-8-8,84.2,69.1,56.5,59.7,55.7,49.6,93,65,40,29.93,29.84,21,5,23,0.00
2013-8-9,83.5,68.1,55.2,60.1,55.3,49.8,93,67,35,29.90,29.84,16,4,18,0.00
2013-8-10,81.5,66.8,54.8,60.7,56.0,52.4,95,71,42,29.97,29.89,19,4,21,0.00
2013-8-11,87.5,69.7,56.5,60.5,56.9,53.9,94,68,36,29.93,29.83,19,4,21,0.00
2013-8-12,88.5,70.4,57.2,62.1,58.1,54.8,95,69,40,29.91,29.82,18,4,19,0.00
2013-8-13,93.4,72.4,57.2,62.8,58.5,54.5,96,66,34,29.91,29.81,18,4,18,0.00
2013-8-14,98.0,75.3,58.8,63.6,56.7,38.4,94,61,14,29.86,29.76,19,4,19,0.00
2013-8-15,96.8,76.9,60.7,66.0,59.2,51.1,92,60,24,29.87,29.81,17,4,17,0.00
2013-8-16,95.3,79.5,66.4,59.5,54.7,43.6,77,46,23,29.89,29.82,19,4,19,0.00
2013-8-17,97.0,79.6,66.7,58.8,54.0,41.3,71,45,15,29.87,29.73,19,4,20,0.00
2013-8-18,98.2,77.7,63.6,58.0,53.0,37.8,77,48,14,29.83,29.72,15,3,17,0.00
2013-8-19,93.5,74.6,62.9,65.6,60.6,55.6,87,64,34,29.86,29.77,15,3,15,0.00
2013-8-20,94.5,72.6,62.2,62.1,58.0,51.5,88,63,26,29.86,29.77,15,3,15,0.00
2013-8-21,96.8,79.0,66.1,59.3,52.1,30.5,70,44,11,29.85,29.76,18,4,19,0.00
2013-8-22,98.5,83.1,68.3,53.5,44.7,31.5,59,29,10,29.85,29.73,20,5,21,0.00
2013-8-23,95.6,78.6,66.5,56.1,51.0,39.8,62,41,17,29.80,29.67,17,4,19,0.00
2013-8-24,95.3,77.1,64.2,54.4,48.6,36.0,68,40,13,29.81,29.69,17,3,18,0.00
2013-8-25,95.2,78.7,65.6,57.2,44.6,28.1,56,33,10,29.86,29.77,15,4,18,0.00
2013-8-26,91.4,80.9,70.2,64.7,50.0,33.5,45,35,21,29.86,29.75,21,5,23,0.00
2013-8-27,94.8,83.2,77.3,65.1,55.3,36.7,52,39,22,29.79,29.69,21,5,24,0.00
2013-8-28,94.2,84.0,74.6,63.5,52.3,34.2,46,35,19,29.82,29.70,20,5,21,0.00
2013-8-29,101.8,86.7,74.5,59.0,51.3,38.9,42,30,20,29.87,29.79,18,4,20,0.00
2013-8-30,94.3,85.2,78.7,69.4,63.0,50.3,70,48,32,29.90,29.83,18,3,18,0.00
2013-8-31,90.4,81.4,74.9,70.9,68.5,66.8,78,66,50,29.89,29.80,18,4,20,0.00
2013-9-1,90.2,79.1,72.0,70.1,67.5,64.6,83,69,50,29.86,29.78,19,5,19,0.00
2013-9-2,93.3,79.1,68.7,68.9,65.0,60.3,87,64,39,29.86,29.74,20,4,21,0.00
2013-9-3,95.5,82.9,73.6,66.3,61.4,57.1,70,51,29,29.84,29.74,18,5,22,0.00
2013-9-4,98.5,85.4,75.5,64.1,58.8,54.2,60,42,27,29.85,29.76,18,4,23,0.00
2013-9-5,99.8,86.9,75.7,61.7,53.8,41.3,50,34,21,29.82,29.74,20,5,23,0.00
2013-9-6,100.3,87.9,77.7,56.4,49.9,35.1,38,28,17,29.81,29.70,20,6,20,0.00
2013-9-7,98.5,84.8,74.3,60.0,48.4,33.8,53,30,16,29.80,29.71,22,4,22,0.00
2013-9-8,94.2,80.5,70.4,56.8,49.3,32.9,62,36,14,29.78,29.66,25,5,28,0.00
2013-9-9,89.8,75.7,62.8,59.1,53.3,45.3,78,48,26,29.74,29.65,19,4,19,0.00
2013-9-10,84.0,67.6,55.7,61.1,55.0,45.1,94,68,27,29.89,29.72,10,3,12,0.00
2013-9-11,83.8,68.3,57.9,61.7,58.0,54.8,91,72,41,29.94,29.86,15,3,18,0.00
2013-9-12,91.7,74.7,62.5,59.0,53.3,37.4,84,52,24,29.89,29.77,18,4,20,0.00
2013-9-13,93.8,79.1,66.7,60.2,52.5,37.1,62,41,24,29.78,29.59,19,3,21,0.00
2013-9-14,97.0,82.1,69.3,58.7,53.0,43.6,59,38,25,29.66,29.56,18,4,19,0.00
2013-9-15,98.2,80.2,66.9,60.2,56.0,46.9,71,47,19,29.71,29.62,20,4,23,0.00
2013-9-16,96.2,80.3,69.3,58.1,52.5,43.0,65,42,18,29.76,29.66,18,4,19,0.00
2013-9-17,86.5,71.6,60.4,59.2,54.9,48.8,86,59,29,29.74,29.65,18,3,19,0.00
2013-9-18,79.7,70.4,60.1,60.1,57.6,54.9,89,65,51,29.76,29.69,15,4,17,0.00
2013-9-19,89.2,68.9,58.6,62.4,58.0,55.1,93,71,40,29.77,29.68,17,3,17,0.00
2013-9-20,73.5,63.0,58.5,61.7,58.6,56.4,95,86,67,29.84,29.75,12,2,12,0.00
2013-9-21,75.7,64.2,57.9,59.3,56.2,52.8,89,77,53,29.87,29.74,24,4,26,0.00
2013-9-22,80.8,67.1,56.0,54.7,47.0,36.4,92,53,26,29.82,29.73,19,4,21,0.00
2013-9-23,92.6,76.9,62.0,45.9,41.1,35.9,55,30,16,29.84,29.77,20,4,21,0.00
2013-9-24,88.2,75.8,63.5,50.0,44.2,33.5,61,34,20,29.87,29.77,18,4,19,0.00
2013-9-25,75.7,64.9,57.4,59.6,54.6,45.5,92,70,46,29.78,29.63,12,2,13,0.00
2013-9-26,73.5,62.8,55.3,51.2,44.9,34.2,85,55,30,29.86,29.67,29,3,29,0.00
2013-9-27,82.1,68.3,58.6,41.9,32.0,25.5,52,27,13,29.96,29.85,25,7,25,0.00
2013-9-28,85.3,73.8,67.3,34.2,28.5,24.8,25,19,12,29.99,29.91,19,4,21,0.00
2013-9-29,89.5,74.0,63.1,42.2,33.9,26.8,32,24,13,30.01,29.90,19,4,19,0.00
2013-9-30,88.6,74.4,63.8,55.3,42.9,35.2,71,35,16,29.93,29.78,23,4,24,0.00
2013-10-1,82.7,69.6,59.5,56.7,53.5,48.6,83,59,37,29.87,29.80,13,4,13,0.00
2013-10-11,61.4,60.1,59.1,48.7,46.9,46.0,67,62,58,29.94,29.92,12,5,13,0.00
2013-10-12,76.8,63.7,55.6,51.7,46.9,38.4,79,57,28,29.93,29.83,17,4,19,0.00
2013-10-13,68.5,58.3,51.4,54.1,51.5,48.3,92,79,59,29.99,29.88,15,2,15,0.00
2013-10-14,80.8,67.6,53.9,51.6,40.8,31.8,91,45,20,30.01,29.88,19,3,19,0.00
2013-10-15,82.9,72.3,66.1,35.1,31.6,29.2,27,23,16,29.93,29.83,21,3,21,0.00
2013-10-16,82.5,71.5,65.0,32.1,27.2,22.4,25,20,12,30.04,29.93,19,6,19,0.00
2013-10-17,81.0,70.5,64.4,37.9,30.6,26.5,31,23,16,29.98,29.86,28,5,28,0.00
2013-10-18,88.0,71.6,59.4,54.8,36.0,24.5,48,29,11,29.97,29.88,20,4,20,0.00
2013-10-19,88.2,74.7,67.2,40.2,31.0,24.8,29,20,14,29.97,29.89,21,5,23,0.00
2013-10-20,83.3,69.5,59.2,55.7,43.8,31.5,75,42,24,29.91,29.82,14,3,14,0.00
2013-10-21,83.3,66.3,56.7,54.6,51.1,37.9,88,63,22,29.93,29.85,12,3,12,0.00
2013-10-22,85.3,67.8,55.7,53.1,45.3,26.3,90,50,13,29.94,29.84,9,2,9,0.00
2013-10-23,74.1,59.0,52.2,56.8,53.1,50.3,95,82,53,29.94,29.83,12,2,13,0.00
2013-10-24,73.3,59.7,54.1,55.3,53.0,51.5,92,80,53,30.01,29.91,13,2,15,0.00
2013-10-25,78.8,62.4,52.5,57.2,52.8,48.3,96,74,43,30.09,29.97,11,2,11,0.01
2013-10-26,87.4,72.3,60.1,55.6,45.6,29.9,84,44,19,30.05,29.92,14,4,17,0.00
2013-10-27,80.3,66.7,54.5,54.1,45.7,32.3,88,50,23,29.93,29.73,19,3,19,0.00
2013-10-28,61.4,54.1,49.9,51.0,46.7,43.1,89,77,53,29.90,29.73,23,6,26,0.00
2013-10-29,60.6,53.1,48.3,50.3,47.3,45.6,91,82,65,29.99,29.89,17,4,18,0.01
2013-10-30,70.1,57.3,49.5,49.7,44.1,38.5,90,64,33,30.04,29.95,16,4,17,0.00
2013-10-31,77.2,64.8,55.9,42.6,36.3,27.4,60,37,16,30.07,29.96,12,2,13,0.00
2013-11-1,81.0,71.0,62.9,35.2,30.7,27.7,27,23,16,30.07,29.91,12,2,16,0.00
2013-11-2,80.3,68.8,56.3,49.2,34.6,28.6,71,30,19,29.95,29.80,22,4,23,0.00
2013-11-3,68.8,58.4,54.4,54.9,51.6,43.3,89,79,59,29.87,29.77,10,2,10,0.00
2013-11-4,65.3,57.3,52.5,52.3,49.4,36.2,93,76,49,29.93,29.75,14,2,18,0.03
2013-11-5,67.7,62.3,56.2,35.7,20.3,9.4,46,21,12,30.12,29.93,35,8,35,0.00
2013-11-6,76.0,67.7,59.8,21.4,15.1,9.5,18,13,11,30.19,30.08,18,4,19,0.00
2013-11-7,81.0,71.1,64.3,35.7,20.4,10.9,24,15,10,30.09,29.95,14,4,16,0.00
2013-11-8,78.1,67.6,59.9,43.8,32.2,21.0,50,28,16,29.98,29.87,9,3,11,0.00
2013-11-9,75.6,63.1,55.1,48.7,34.3,16.4,70,38,11,30.03,29.93,9,3,11,0.00
2013-11-10,77.8,65.6,58.3,50.9,35.4,14.4,71,35,9,30.08,29.98,17,4,17,0.00
2013-11-11,80.9,69.2,59.7,44.8,34.7,29.0,42,29,16,30.07,29.98,14,4,16,0.00
2013-11-12,82.1,74.5,66.6,39.7,33.1,26.8,33,22,16,30.11,30.02,15,3,19,0.00
2013-11-13,86.9,77.5,72.5,31.1,26.3,23.3,18,15,11,30.03,29.86,19,4,23,0.00
2013-11-14,87.2,75.5,62.3,41.2,30.2,24.5,44,20,13,29.89,29.68,18,3,18,0.00
2013-11-15,66.5,58.4,53.2,54.6,50.3,37.6,90,76,41,29.72,29.61,11,2,11,0.00
2013-11-16,59.9,55.2,51.7,53.3,49.7,46.6,93,82,67,29.91,29.71,9,2,10,0.00
2013-11-17,64.1,55.3,50.0,51.5,49.5,47.2,92,82,63,30.07,29.91,12,3,12,0.00
2013-11-18,65.2,55.3,50.6,52.7,49.7,47.8,92,82,64,30.12,30.01,17,4,19,0.00
2013-11-19,62.9,54.6,49.7,51.9,49.6,47.9,95,84,65,30.06,29.92,11,3,13,0.00
2013-11-20,60.9,55.2,51.2,53.6,51.5,48.3,95,88,76,29.95,29.84,8,1,11,0.09
2013-11-21,60.1,55.0,50.9,55.9,51.9,43.0,96,90,74,29.86,29.78,17,3,18,0.16
2013-11-22,53.0,50.2,48.8,43.5,39.2,37.9,76,66,59,29.96,29.82,36,12,41,0.00
2013-11-23,56.6,51.8,48.5,40.9,39.1,37.7,69,62,53,30.08,29.94,25,6,28,0.00
2013-11-24,63.4,55.3,49.8,41.9,40.4,38.5,69,58,42,30.17,30.06,16,3,19,0.00
2013-11-25,71.3,60.0,54.1,42.6,38.2,35.6,57,45,28,30.21,30.11,19,4,22,0.00
2013-11-26,72.8,63.8,58.4,39.8,36.8,30.2,45,37,23,30.15,30.01,9,2,12,0.00
2013-11-27,70.5,61.5,55.5,40.5,37.3,34.9,53,41,28,30.01,29.84,11,3,12,0.00
2013-11-28,65.4,57.0,53.0,46.8,41.2,34.8,70,56,38,30.03,29.84,13,2,17,0.00
2013-11-29,58.3,56.0,51.4,51.3,46.7,41.9,86,71,56,30.16,30.02,15,2,15,0.07
2013-11-30,70.5,62.7,56.4,43.8,39.3,35.4,60,43,32,30.17,30.05,17,2,18,0.00
2013-12-1,72.9,65.5,60.7,36.1,32.5,28.0,38,30,20,30.20,30.08,24,4,27,0.00
2013-12-2,73.8,65.3,57.8,38.6,31.5,26.7,46,29,21,30.09,29.84,13,3,13,0.00
2013-12-3,62.9,54.6,46.3,50.8,43.0,32.8,84,66,38,29.85,29.69,21,3,22,0.00
2013-12-4,56.9,47.6,41.7,41.7,24.9,15.2,84,43,21,29.94,29.73,12,4,13,0.00
2013-12-5,53.2,46.2,42.0,36.8,29.4,23.1,61,52,37,30.08,29.92,18,3,18,0.00
2013-12-6,54.1,45.7,41.0,38.9,34.5,27.9,77,65,55,30.15,30.06,14,3,15,0.00
2013-12-7,51.0,43.9,39.3,47.7,35.5,24.9,94,73,55,30.09,29.94,33,5,37,0.11
2013-12-8,51.1,43.5,38.1,34.2,26.2,16.4,63,51,36,30.21,30.08,11,3,12,0.00
2013-12-9,50.5,45.6,40.0,16.9,4.3,-7.1,37,20,10,30.31,30.18,40,10,43,0.00
2013-12-10,58.7,50.7,44.5,9.7,4.5,-3.7,18,15,12,30.28,30.09,15,3,17,0.00
2013-12-11,64.5,55.5,49.7,17.1,12.8,7.6,21,18,14,30.16,30.09,13,3,16,0.00
2013-12-12,66.3,57.0,49.7,44.0,24.0,15.1,58,29,16,30.18,30.08,13,3,14,0.00
2013-12-13,64.7,53.4,45.3,45.5,39.5,22.6,86,62,26,30.20,30.09,13,2,14,0.00
2013-12-14,68.3,62.7,57.6,24.1,21.3,16.9,26,20,16,30.27,30.16,31,9,32,0.00
2013-12-15,74.0,65.9,59.5,26.3,22.4,18.9,23,19,15,30.23,30.08,20,4,21,0.00
2013-12-16,79.0,70.8,64.7,30.4,24.8,22.3,20,18,14,30.11,30.02,10,3,11,0.00
2013-12-17,79.9,72.1,66.7,38.0,27.9,23.4,34,19,16,30.08,29.95,10,3,11,0.00
2013-12-18,70.8,61.8,51.3,49.2,41.2,28.1,89,52,22,29.95,29.78,12,2,13,0.00
2013-12-19,52.4,49.1,47.2,47.4,44.1,37.7,91,83,64,29.79,29.66,15,3,19,0.05
2013-12-20,57.3,49.2,47.6,37.8,35.6,31.2,68,60,38,29.83,29.77,17,6,18,0.00
2013-12-23,71.0,68.8,66.8,37.1,35.7,34.3,30,30,28,30.24,30.19,20,8,22,0.00
2013-12-24,71.6,71.4,71.2,35.7,34.9,34.5,27,26,26,30.12,30.10,10,5,20,0.00